Location: Melbourne
(37.8666°S, 145.1333°E)
Time: 16:42:44
(UTC+10:00)

Hubble Space Telescope - Visible Passes

Search period start: 24 April 2018 00:00
Search period end: 04 May 2018 00:00
Orbit: 537 x 541 km, 28.5° (Epoch: 23 April)

Date Brightness Start Highest point End Pass type
(mag) Time Alt. Az. Time Alt. Az. Time Alt. Az.
02 May 3.1 06:23:56 10° NW 06:26:53 19° N 06:29:50 10° NE visible
03 May 3.6 04:36:17 10° NNE 04:36:17 10° NNE 04:36:48 10° NNE visible
03 May 2.9 06:13:22 10° NW 06:16:28 20° N 06:19:35 10° NE visible
